Regional Weather Roundup
Issued by NWS

Home | Current Version | Previous Version | Text Only | Print | Product List | Glossary On
Versions: 1 2 3 4 5 6 7 8 9 10 11 12 13 14 15 16 17 18 19 20 21 22 23 24 25 26 27
000
ASUS42 KKEY 260910
RWRKEY

FLORIDA REGIONAL WEATHER ROUNDUP FOR THE FLORIDA KEYS
NATIONAL WEATHER SERVICE KEY WEST FLORIDA
500 AM EDT SUN OCT 26 2014

...SOUTH FLORIDA AND THE KEYS...

CITY           SKY/WX    TMP DP  RH WIND       PRES   REMARKS
FORT MYERS     CLEAR     60  57  89 NE3       29.94F
SW REGIONAL AP CLEAR     62  58  86 N6        29.94F
NAPLES         CLEAR     66  60  81 NE7       29.93F
MIAMI          PTCLDY    70  64  81 NW6       29.90S
WEST KENDALL   CLEAR     70  64  81 N7        29.91S
HOMESTEAD      CLEAR     67  64  90 NW8       29.90S
MARATHON       CLEAR     73  64  73 NE12      29.91R
BOCA CHICA NAS CLEAR     74  67  78 NE12      29.91S
KEY WEST INTL  CLEAR     74  68  81 N7        29.92R

...INTERNATIONAL WEATHER...

CITY           SKY/WX    TMP DP  RH WIND       PRES   REMARKS
NASSAU BAHAMAS PTCLDY    77  66  69 N9        29.87R
CANCUN MEXICO  CLEAR     66  66 100 CALM      29.94S
COZUMEL MEXICO PTCLDY    72  70  94 N10       29.94S

ADJACENT COASTAL WATERS...

STATION/POSITION TIME  SKY/WX   TEMP    WIND        PRES    WAVE
                                AIR SEA DIR/SP/G            HT/PER
                 (UTC)          (F)     (DEG/KT/KT) (MB)    (FT/S)
PULASKI SHOAL LI 0800            78      30/ 10/ 13 1012.9F
SAND KEY         0836            76      40/ 13/ 16 1012.8R
SOMBRERO KEY     0900            74      20/ 16/ 18 1013.1R
LONG KEY         0900            73 76   20/ 15/ 18 1013.6R
MOLASSES REEF    0900            73 81  360/ 16/ 18 1012.2R
FOWEY ROCKS      0900            74 80  330/ 17/ 19 1012.3S
Buoy 42080       NOT AVBL

$$



USA.gov is the U.S. government's official web portal to all federal, state and local government web resources and services.